| time (UTC) | temp C | wind direction | speed KPH | gust KPH | rain 1hr cm | rain 24hr cm | rain mn cm | humidity % | barometer mb |
| 20260505122132 | 22 | 76 | 3.2 | 3.2 | 0.00 | 0.00 | 0.00 | 96 | 1010.0 |
| 20260505121629 | 22 | 355 | 3.2 | 9.7 | 0.00 | 0.00 | 0.00 | 96 | 1009.8 |
| 20260505121126 | 22 | 52 | 0.0 | 1.6 | 0.00 | 0.00 | 0.00 | 96 | 1009.8 |
| 20260505120621 | 22 | 88 | 1.6 | 3.2 | 0.00 | 0.00 | 0.00 | 96 | 1009.9 |
| 20260505120117 | 22 | 59 | 0.0 | 9.7 | 0.00 | 0.00 | 0.00 | 96 | 1009.8 |
| 20260505115612 | 22 | 114 | 4.8 | 8.0 | 0.00 | 0.00 | 0.00 | 96 | 1009.6 |
| 20260505115110 | 22 | 96 | 0.0 | 4.8 | 0.00 | 0.00 | 0.00 | 95 | 1009.7 |
| 20260505114606 | 22 | 203 | 4.8 | 9.7 | 0.00 | 0.00 | 0.00 | 95 | 1009.7 |
| 20260505114103 | 22 | 181 | 0.0 | 1.6 | 0.00 | 0.00 | 0.00 | 95 | 1009.7 |
| 20260505113559 | 22 | 172 | 6.4 | 8.0 | 0.00 | 0.00 | 0.00 | 95 | 1009.6 |
| 20260505113056 | 22 | 86 | 1.6 | 8.0 | 0.00 | 0.00 | 0.00 | 95 | 1009.8 |
| 20260505112552 | 22 | 160 | 1.6 | 3.2 | 0.00 | 0.00 | 0.00 | 95 | 1009.5 |
| 20260505112050 | 22 | 244 | 3.2 | 3.2 | 0.00 | 0.00 | 0.00 | 95 | 1009.5 |
| 20260505111544 | 22 | 102 | 1.6 | 4.8 | 0.00 | 0.00 | 0.00 | 94 | 1009.6 |
| 20260505111040 | 22 | 125 | 1.6 | 9.7 | 0.00 | 0.00 | 0.00 | 94 | 1009.5 |
| 20260505110537 | 22 | 116 | 0.0 | 4.8 | 0.00 | 0.00 | 0.00 | 94 | 1009.3 |
| 20260505102010 | 22 | 38 | 0.0 | 8.0 | 0.00 | 0.00 | 0.00 | 94 | 1009.5 |
| 20260505101508 | 22 | 170 | 6.4 | 11.3 | 0.00 | 0.00 | 0.00 | 94 | 1009.6 |
| 20260505101004 | 22 | 140 | 1.6 | 4.8 | 0.00 | 0.00 | 0.00 | 94 | 1009.6 |
| 20260505100501 | 22 | 122 | 1.6 | 3.2 | 0.00 | 0.00 | 0.00 | 94 | 1009.5 |
| 20260505095957 | 22 | 88 | 3.2 | 3.2 | 0.00 | 0.00 | 0.00 | 94 | 1009.6 |
| 20260505095454 | 22 | 115 | 4.8 | 8.0 | 0.00 | 0.00 | 0.00 | 94 | 1009.5 |
| 20260505094950 | 22 | 85 | 0.0 | 3.2 | 0.00 | 0.00 | 0.00 | 94 | 1009.7 |
| 20260505094447 | 22 | 79 | 0.0 | 4.8 | 0.00 | 0.00 | 0.00 | 94 | 1009.8 |
| 20260505093943 | 21 | 102 | 1.6 | 8.0 | 0.00 | 0.00 | 0.00 | 94 | 1009.8 |
| 20260505093440 | 21 | 105 | 1.6 | 4.8 | 0.00 | 0.00 | 0.00 | 94 | 1010.0 |
| 20260505092937 | 21 | 71 | 1.6 | 1.6 | 0.00 | 0.00 | 0.00 | 94 | 1009.9 |
| 20260505092435 | 21 | 86 | 1.6 | 1.6 | 0.00 | 0.00 | 0.00 | 94 | 1009.7 |
| 20260505091932 | 21 | 168 | 3.2 | 3.2 | 0.00 | 0.00 | 0.00 | 95 | 1010.0 |
| 20260505091430 | 21 | 78 | 0.0 | 1.6 | 0.00 | 0.00 | 0.00 | 95 | 1010.1 |
| 20260505090928 | 21 | 87 | 0.0 | 0.0 | 0.00 | 0.00 | 0.00 | 95 | 1010.1 |
| 20260505090426 | 21 | 66 | 0.0 | 0.0 | 0.00 | 0.00 | 0.00 | 95 | 1010.2 |
| 20260505085922 | 21 | 76 | 0.0 | 3.2 | 0.00 | 0.00 | 0.00 | 95 | 1010.0 |
| 20260505085420 | 21 | 87 | 3.2 | 3.2 | 0.00 | 0.00 | 0.00 | 95 | 1009.8 |
| 20260505084918 | 21 | 79 | 0.0 | 3.2 | 0.00 | 0.00 | 0.00 | 95 | 1009.9 |
| 20260505084416 | 21 | 69 | 0.0 | 4.8 | 0.00 | 0.00 | 0.00 | 95 | 1010.0 |
| 20260505083914 | 21 | 77 | 0.0 | 1.6 | 0.00 | 0.00 | 0.00 | 95 | 1010.0 |
| 20260505083411 | 21 | 78 | 0.0 | 1.6 | 0.00 | 0.00 | 0.00 | 95 | 1009.8 |
| 20260505082907 | 20 | 103 | 1.6 | 3.2 | 0.00 | 0.00 | 0.00 | 96 | 1009.9 |
| 20260505082403 | 20 | 74 | 0.0 | 1.6 | 0.00 | 0.00 | 0.00 | 96 | 1010.0 |
| 20260505081900 | 20 | 274 | 1.6 | 3.2 | 0.00 | 0.00 | 0.00 | 97 | 1009.9 |
| 20260505081351 | 20 | 74 | 0.0 | 0.0 | 0.00 | 0.00 | 0.00 | 97 | 1010.1 |
| 20260505080848 | 20 | 70 | 0.0 | 1.6 | 0.00 | 0.00 | 0.00 | 97 | 1010.0 |
| 20260505080344 | 20 | 80 | 1.6 | 4.8 | 0.00 | 0.00 | 0.00 | 97 | 1010.2 |
| 20260505075839 | 20 | 61 | 0.0 | 1.6 | 0.00 | 0.00 | 0.00 | 97 | 1010.3 |
| 20260505075336 | 20 | 58 | 0.0 | 0.0 | 0.00 | 0.00 | 0.00 | 97 | 1010.1 |
| 20260505074833 | 20 | 79 | 0.0 | 1.6 | 0.00 | 0.00 | 0.00 | 97 | 1010.1 |
| 20260505074331 | 20 | 76 | 0.0 | 1.6 | 0.00 | 0.00 | 0.00 | 97 | 1010.2 |
| 20260505073828 | 20 | 70 | 0.0 | 0.0 | 0.00 | 0.00 | 0.00 | 97 | 1010.2 |
| 20260505073326 | 20 | 68 | 0.0 | 0.0 | 0.00 | 0.00 | 0.00 | 96 | 1010.4 |
| 20260505072822 | 20 | 83 | 1.6 | 1.6 | 0.00 | 0.00 | 0.00 | 96 | 1010.5 |
| 20260505072319 | 20 | 83 | 0.0 | 1.6 | 0.00 | 0.00 | 0.00 | 96 | 1010.4 |
| 20260505071814 | 20 | 217 | 3.2 | 4.8 | 0.00 | 0.00 | 0.00 | 96 | 1010.3 |
| 20260505071311 | 20 | 62 | 0.0 | 1.6 | 0.00 | 0.00 | 0.00 | 96 | 1010.3 |
| 20260505070809 | 20 | 167 | 1.6 | 4.8 | 0.00 | 0.00 | 0.00 | 96 | 1010.4 |
| 20260505070305 | 20 | 79 | 0.0 | 1.6 | 0.00 | 0.00 | 0.00 | 96 | 1010.5 |
| 20260505065800 | 20 | 61 | 0.0 | 3.2 | 0.00 | 0.00 | 0.00 | 95 | 1010.7 |
| 20260505065258 | 20 | 66 | 1.6 | 1.6 | 0.00 | 0.00 | 0.00 | 95 | 1010.8 |
| 20260505064755 | 20 | 107 | 0.0 | 0.0 | 0.00 | 0.00 | 0.00 | 95 | 1010.8 |
| 20260505064252 | 20 | 65 | 0.0 | 1.6 | 0.00 | 0.00 | 0.00 | 95 | 1010.9 |
| 20260505063749 | 20 | 154 | 1.6 | 3.2 | 0.00 | 0.00 | 0.00 | 95 | 1010.8 |
| 20260505063241 | 20 | 53 | 0.0 | 1.6 | 0.00 | 0.00 | 0.00 | 95 | 1010.9 |
| 20260505062737 | 20 | 76 | 1.6 | 3.2 | 0.00 | 0.00 | 0.00 | 94 | 1010.9 |
| 20260505062235 | 20 | 77 | 1.6 | 3.2 | 0.00 | 0.00 | 0.00 | 94 | 1011.3 |
| 20260505061731 | 20 | 102 | 1.6 | 4.8 | 0.00 | 0.00 | 0.00 | 94 | 1011.1 |
| 20260505061229 | 20 | 75 | 1.6 | 3.2 | 0.00 | 0.00 | 0.00 | 94 | 1011.2 |
| 20260505060726 | 20 | 107 | 1.6 | 1.6 | 0.00 | 0.00 | 0.00 | 94 | 1011.2 |
| 20260505060224 | 20 | 71 | 0.0 | 3.2 | 0.00 | 0.00 | 0.00 | 94 | 1011.1 |
| 20260505055718 | 20 | 208 | 3.2 | 4.8 | 0.00 | 0.00 | 0.00 | 94 | 1011.0 |
| 20260505055215 | 20 | 76 | 0.0 | 1.6 | 0.00 | 0.00 | 0.00 | 93 | 1011.1 |
| 20260505054713 | 20 | 138 | 3.2 | 4.8 | 0.00 | 0.00 | 0.00 | 93 | 1011.4 |
| 20260505054210 | 20 | 88 | 1.6 | 1.6 | 0.00 | 0.00 | 0.00 | 93 | 1011.2 |
| 20260505053709 | 20 | 123 | 3.2 | 3.2 | 0.00 | 0.00 | 0.00 | 93 | 1011.4 |
| 20260505053204 | 20 | 173 | 3.2 | 3.2 | 0.00 | 0.00 | 0.00 | 93 | 1011.3 |
| 20260505052701 | 20 | 75 | 0.0 | 1.6 | 0.00 | 0.00 | 0.00 | 93 | 1011.3 |
| 20260505052153 | 20 | 92 | 1.6 | 4.8 | 0.00 | 0.00 | 0.00 | 93 | 1011.3 |
| 20260505051650 | 20 | 76 | 1.6 | 1.6 | 0.00 | 0.00 | 0.00 | 93 | 1011.3 |
| 20260505051148 | 20 | 82 | 0.0 | 3.2 | 0.00 | 0.00 | 0.00 | 93 | 1011.0 |
| 20260505050645 | 20 | 53 | 1.6 | 1.6 | 0.00 | 0.00 | 0.00 | 93 | 1011.3 |
| 20260505050143 | 20 | 66 | 0.0 | 3.2 | 0.00 | 0.00 | 0.00 | 93 | 1011.4 |
| 20260505041613 | 20 | 96 | 1.6 | 4.8 | 0.00 | 0.00 | 0.00 | 91 | 1011.8 |
| 20260505041110 | 20 | 102 | 3.2 | 8.0 | 0.00 | 0.00 | 0.00 | 92 | 1011.6 |
| 20260505040608 | 20 | 73 | 0.0 | 1.6 | 0.00 | 0.00 | 0.00 | 91 | 1011.9 |
| 20260505040105 | 20 | 87 | 1.6 | 3.2 | 0.00 | 0.00 | 0.00 | 91 | 1012.2 |
| 20260505035601 | 20 | 96 | 3.2 | 4.8 | 0.00 | 0.00 | 0.00 | 91 | 1012.2 |
| 20260505035057 | 20 | 67 | 0.0 | 3.2 | 0.00 | 0.00 | 0.00 | 91 | 1012.1 |
| 20260505034554 | 20 | 153 | 4.8 | 9.7 | 0.00 | 0.00 | 0.00 | 91 | 1012.2 |
| 20260505034051 | 20 | 77 | 0.0 | 1.6 | 0.00 | 0.00 | 0.00 | 91 | 1012.0 |
| 20260505033548 | 20 | 74 | 0.0 | 3.2 | 0.00 | 0.00 | 0.00 | 91 | 1012.0 |
| 20260505033046 | 20 | 150 | 3.2 | 3.2 | 0.00 | 0.00 | 0.00 | 91 | 1011.9 |
| 20260505032544 | 20 | 151 | 4.8 | 4.8 | 0.00 | 0.00 | 0.00 | 91 | 1011.9 |
| 20260505032040 | 20 | 147 | 4.8 | 8.0 | 0.00 | 0.00 | 0.00 | 90 | 1011.9 |
| 20260505031537 | 20 | 55 | 0.0 | 1.6 | 0.00 | 0.00 | 0.00 | 90 | 1012.0 |
| 20260505031033 | 20 | 69 | 0.0 | 0.0 | 0.00 | 0.00 | 0.00 | 90 | 1012.0 |
| 20260505030531 | 21 | 82 | 1.6 | 4.8 | 0.00 | 0.00 | 0.00 | 90 | 1012.0 |
| 20260505030026 | 21 | 78 | 3.2 | 4.8 | 0.00 | 0.00 | 0.00 | 89 | 1011.9 |
| 20260505025522 | 21 | 85 | 1.6 | 4.8 | 0.00 | 0.00 | 0.00 | 89 | 1012.2 |
| 20260505025022 | 21 | 86 | 1.6 | 4.8 | 0.00 | 0.00 | 0.00 | 89 | 1012.0 |
| 20260505024518 | 21 | 43 | 0.0 | 9.7 | 0.00 | 0.00 | 0.00 | 88 | 1011.9 |
| 20260505024015 | 21 | 61 | 0.0 | 9.7 | 0.00 | 0.00 | 0.00 | 88 | 1011.9 |
| 20260505023512 | 21 | 73 | 1.6 | 3.2 | 0.00 | 0.00 | 0.00 | 88 | 1011.7 |
| 20260505023010 | 21 | 111 | 1.6 | 4.8 | 0.00 | 0.00 | 0.00 | 88 | 1011.7 |
| 20260505022507 | 21 | 105 | 1.6 | 4.8 | 0.00 | 0.00 | 0.00 | 87 | 1011.9 |
| 20260505022004 | 21 | 299 | 1.6 | 4.8 | 0.00 | 0.00 | 0.00 | 87 | 1011.7 |
| 20260505021501 | 21 | 3 | 1.6 | 4.8 | 0.00 | 0.00 | 0.00 | 87 | 1011.8 |
| 20260505020956 | 21 | 56 | 0.0 | 3.2 | 0.00 | 0.00 | 0.00 | 87 | 1011.6 |
| 20260505020452 | 21 | 96 | 3.2 | 3.2 | 0.00 | 0.00 | 0.00 | 86 | 1011.6 |
| 20260505015949 | 21 | 46 | 1.6 | 3.2 | 0.00 | 0.00 | 0.00 | 86 | 1011.5 |
| 20260505015446 | 21 | 95 | 0.0 | 4.8 | 0.00 | 0.00 | 0.00 | 86 | 1011.7 |
| 20260505014943 | 21 | 131 | 1.6 | 3.2 | 0.00 | 0.00 | 0.00 | 85 | 1011.5 |
| 20260505014440 | 21 | 121 | 1.6 | 3.2 | 0.00 | 0.00 | 0.00 | 85 | 1011.4 |
| 20260505013937 | 21 | 187 | 4.8 | 4.8 | 0.00 | 0.00 | 0.00 | 85 | 1011.4 |
| 20260505013434 | 21 | 101 | 3.2 | 8.0 | 0.00 | 0.00 | 0.00 | 84 | 1011.4 |
| 20260505012932 | 21 | 68 | 0.0 | 3.2 | 0.00 | 0.00 | 0.00 | 84 | 1011.3 |
| 20260505012430 | 21 | 48 | 1.6 | 3.2 | 0.00 | 0.00 | 0.00 | 83 | 1011.5 |
| 20260505011926 | 22 | 167 | 4.8 | 9.7 | 0.00 | 0.00 | 0.00 | 83 | 1011.6 |
| 20260505011422 | 22 | 167 | 0.0 | 3.2 | 0.00 | 0.00 | 0.00 | 82 | 1011.5 |
| 20260505010919 | 22 | 116 | 1.6 | 8.0 | 0.00 | 0.00 | 0.00 | 82 | 1011.4 |
| 20260505010415 | 22 | 70 | 4.8 | 8.0 | 0.00 | 0.00 | 0.00 | 81 | 1011.4 |
| 20260505005911 | 22 | 67 | 1.6 | 3.2 | 0.00 | 0.00 | 0.00 | 81 | 1011.4 |
| 20260505005408 | 22 | 81 | 1.6 | 8.0 | 0.00 | 0.00 | 0.00 | 80 | 1011.5 |
| 20260505004905 | 22 | 270 | 1.6 | 4.8 | 0.00 | 0.00 | 0.00 | 79 | 1011.6 |
| 20260505004402 | 22 | 82 | 1.6 | 9.7 | 0.00 | 0.00 | 0.00 | 79 | 1011.7 |
| 20260505003859 | 23 | 39 | 4.8 | 8.0 | 0.00 | 0.00 | 0.00 | 78 | 1011.5 |
| 20260505003356 | 23 | 203 | 3.2 | 11.3 | 0.00 | 0.00 | 0.00 | 77 | 1011.6 |
| 20260505002852 | 23 | 151 | 4.8 | 4.8 | 0.00 | 0.00 | 0.00 | 76 | 1011.5 |
| 20260505002349 | 23 | 96 | 1.6 | 8.0 | 0.00 | 0.00 | 0.00 | 76 | 1011.7 |
| 20260505001847 | 23 | 190 | 6.4 | 12.9 | 0.00 | 0.00 | 0.00 | 75 | 1011.5 |
| 20260505001344 | 23 | 67 | 3.2 | 8.0 | 0.00 | 0.00 | 0.00 | 74 | 1011.6 |
| 20260505000841 | 23 | 34 | 1.6 | 8.0 | 0.00 | 0.00 | 0.00 | 73 | 1011.5 |
| 20260505000339 | 23 | 64 | 3.2 | 11.3 | 0.00 | 0.00 | 0.00 | 74 | 1011.6 |
| 20260504235835 | 23 | 99 | 1.6 | 4.8 | 0.00 | 0.00 | 0.00 | 74 | 1011.5 |
| 20260504235333 | 23 | 94 | 1.6 | 3.2 | 0.00 | 0.00 | 0.00 | 74 | 1011.8 |
| 20260504234829 | 23 | 203 | 4.8 | 9.7 | 0.00 | 0.00 | 0.00 | 74 | 1012.0 |
| 20260504234327 | 23 | 82 | 1.6 | 3.2 | 0.00 | 0.00 | 0.00 | 73 | 1012.1 |
| 20260504233823 | 24 | 191 | 4.8 | 8.0 | 0.00 | 0.00 | 0.00 | 72 | 1012.0 |
| 20260504233319 | 25 | 130 | 1.6 | 8.0 | 0.00 | 0.00 | 0.00 | 70 | 1012.3 |
| 20260504232816 | 25 | 184 | 8.0 | 11.3 | 0.00 | 0.00 | 0.00 | 70 | 1012.1 |
| 20260504232313 | 25 | 237 | 3.2 | 14.5 | 0.00 | 0.00 | 0.00 | 70 | 1012.2 |
| 20260504231810 | 25 | 77 | 1.6 | 8.0 | 0.00 | 0.00 | 0.00 | 70 | 1012.2 |
| 20260504231306 | 25 | 66 | 3.2 | 4.8 | 0.00 | 0.00 | 0.00 | 69 | 1012.2 |
| 20260504230802 | 25 | 172 | 4.8 | 4.8 | 0.00 | 0.00 | 0.00 | 68 | 1012.2 |
| 20260504230300 | 25 | 115 | 3.2 | 12.9 | 0.00 | 0.00 | 0.00 | 69 | 1012.2 |
| 20260504225759 | 25 | 85 | 1.6 | 3.2 | 0.00 | 0.00 | 0.00 | 68 | 1012.4 |
| 20260504225255 | 25 | 50 | 3.2 | 12.9 | 0.00 | 0.00 | 0.00 | 69 | 1012.3 |
| 20260504224752 | 25 | 292 | 6.4 | 14.5 | 0.00 | 0.00 | 0.00 | 68 | 1012.3 |
| 20260504224249 | 25 | 81 | 3.2 | 11.3 | 0.00 | 0.00 | 0.00 | 68 | 1012.4 |
| 20260504223746 | 25 | 131 | 1.6 | 4.8 | 0.00 | 0.00 | 0.00 | 68 | 1012.5 |
| 20260504223241 | 25 | 58 | 1.6 | 8.0 | 0.00 | 0.00 | 0.00 | 70 | 1012.6 |
| 20260504222738 | 25 | 165 | 8.0 | 11.3 | 0.00 | 0.00 | 0.00 | 69 | 1012.8 |
| 20260504222235 | 25 | 282 | 1.6 | 8.0 | 0.00 | 0.00 | 0.00 | 69 | 1012.6 |
| 20260504221733 | 25 | 148 | 3.2 | 16.1 | 0.00 | 0.00 | 0.00 | 68 | 1012.6 |
| 20260504221229 | 25 | 226 | 3.2 | 8.0 | 0.00 | 0.00 | 0.00 | 69 | 1012.4 |
| 20260504220725 | 25 | 56 | 0.0 | 3.2 | 0.00 | 0.00 | 0.00 | 68 | 1012.5 |
| 20260504220218 | 25 | 148 | 9.7 | 11.3 | 0.00 | 0.00 | 0.00 | 67 | 1012.6 |
| 20260504215714 | 26 | 203 | 4.8 | 11.3 | 0.00 | 0.00 | 0.00 | 67 | 1012.9 |
| 20260504215212 | 25 | 247 | 1.6 | 11.3 | 0.00 | 0.00 | 0.00 | 67 | 1012.9 |
| 20260504214707 | 25 | 85 | 3.2 | 9.7 | 0.00 | 0.00 | 0.00 | 68 | 1012.9 |
| 20260504214204 | 25 | 106 | 1.6 | 1.6 | 0.00 | 0.00 | 0.00 | 67 | 1013.1 |
| 20260504213701 | 26 | 48 | 3.2 | 12.9 | 0.00 | 0.00 | 0.00 | 66 | 1013.0 |
| 20260504213157 | 26 | 207 | 6.4 | 8.0 | 0.00 | 0.00 | 0.00 | 66 | 1013.0 |
| 20260504212654 | 25 | 189 | 6.4 | 11.3 | 0.00 | 0.00 | 0.00 | 67 | 1013.1 |
| 20260504212150 | 25 | 186 | 8.0 | 12.9 | 0.00 | 0.00 | 0.00 | 67 | 1013.0 |
| 20260504211648 | 25 | 68 | 1.6 | 11.3 | 0.00 | 0.00 | 0.00 | 67 | 1013.1 |
| 20260504211144 | 26 | 174 | 4.8 | 14.5 | 0.00 | 0.00 | 0.00 | 66 | 1013.1 |
| 20260504210642 | 26 | 114 | 3.2 | 11.3 | 0.00 | 0.00 | 0.00 | 65 | 1013.2 |
| 20260504210138 | 26 | 131 | 6.4 | 16.1 | 0.00 | 0.00 | 0.00 | 66 | 1013.3 |
| 20260504205636 | 26 | 74 | 1.6 | 4.8 | 0.00 | 0.00 | 0.00 | 64 | 1013.4 |
| 20260504205133 | 26 | 279 | 4.8 | 4.8 | 0.00 | 0.00 | 0.00 | 65 | 1013.6 |
| 20260504204631 | 26 | 218 | 1.6 | 8.0 | 0.00 | 0.00 | 0.00 | 65 | 1013.6 |
| 20260504204130 | 26 | 101 | 4.8 | 11.3 | 0.00 | 0.00 | 0.00 | 63 | 1013.5 |
| 20260504203628 | 26 | 211 | 4.8 | 11.3 | 0.00 | 0.00 | 0.00 | 63 | 1013.5 |
| 20260504203125 | 26 | 190 | 3.2 | 8.0 | 0.00 | 0.00 | 0.00 | 65 | 1013.6 |
| 20260504202620 | 26 | 87 | 1.6 | 9.7 | 0.00 | 0.00 | 0.00 | 65 | 1013.5 |
| 20260504202117 | 26 | 186 | 9.7 | 12.9 | 0.00 | 0.00 | 0.00 | 64 | 1013.8 |
| 20260504201614 | 26 | 253 | 6.4 | 9.7 | 0.00 | 0.00 | 0.00 | 64 | 1013.8 |
| 20260504201112 | 26 | 252 | 3.2 | 12.9 | 0.00 | 0.00 | 0.00 | 66 | 1014.0 |
| 20260504200609 | 26 | 259 | 11.3 | 12.9 | 0.00 | 0.00 | 0.00 | 64 | 1014.1 |
| 20260504200105 | 26 | 227 | 4.8 | 9.7 | 0.00 | 0.00 | 0.00 | 64 | 1014.2 |
| 20260504195601 | 26 | 281 | 4.8 | 12.9 | 0.00 | 0.00 | 0.00 | 65 | 1014.2 |
| 20260504195057 | 26 | 127 | 4.8 | 8.0 | 0.00 | 0.00 | 0.00 | 66 | 1014.3 |
| 20260504194554 | 25 | 162 | 3.2 | 4.8 | 0.00 | 0.00 | 0.00 | 66 | 1014.2 |
| 20260504194050 | 25 | 219 | 4.8 | 9.7 | 0.00 | 0.00 | 0.00 | 65 | 1014.6 |
| 20260504193546 | 26 | 223 | 6.4 | 11.3 | 0.00 | 0.00 | 0.00 | 63 | 1014.7 |
| 20260504193045 | 27 | 209 | 8.0 | 11.3 | 0.00 | 0.00 | 0.00 | 62 | 1014.9 |
| 20260504192543 | 26 | 101 | 1.6 | 8.0 | 0.00 | 0.00 | 0.00 | 63 | 1014.8 |
| 20260504192041 | 26 | 52 | 4.8 | 9.7 | 0.00 | 0.00 | 0.00 | 62 | 1014.5 |
| 20260504191538 | 25 | 177 | 4.8 | 14.5 | 0.00 | 0.00 | 0.00 | 64 | 1014.8 |
| 20260504191034 | 26 | 215 | 8.0 | 9.7 | 0.00 | 0.00 | 0.00 | 62 | 1014.8 |
| 20260504190531 | 26 | 90 | 1.6 | 12.9 | 0.00 | 0.00 | 0.00 | 62 | 1014.7 |
| 20260504190027 | 26 | 212 | 6.4 | 12.9 | 0.00 | 0.00 | 0.00 | 62 | 1014.9 |
| 20260504185524 | 26 | 76 | 1.6 | 12.9 | 0.00 | 0.00 | 0.00 | 66 | 1014.9 |
| 20260504185021 | 25 | 236 | 1.6 | 4.8 | 0.00 | 0.00 | 0.00 | 65 | 1015.1 |
| 20260504184516 | 26 | 253 | 6.4 | 12.9 | 0.00 | 0.00 | 0.00 | 63 | 1015.1 |
| 20260504184012 | 26 | 4 | 3.2 | 11.3 | 0.00 | 0.00 | 0.00 | 63 | 1015.1 |
| 20260504183509 | 25 | 123 | 3.2 | 8.0 | 0.00 | 0.00 | 0.00 | 67 | 1015.2 |
| 20260504183008 | 26 | 195 | 9.7 | 11.3 | 0.00 | 0.00 | 0.00 | 64 | 1015.1 |
| 20260504182503 | 26 | 248 | 3.2 | 11.3 | 0.00 | 0.00 | 0.00 | 65 | 1015.2 |
| 20260504182001 | 25 | 224 | 1.6 | 9.7 | 0.00 | 0.00 | 0.00 | 66 | 1015.4 |
| 20260504181458 | 26 | 5 | 4.8 | 9.7 | 0.00 | 0.00 | 0.00 | 65 | 1015.5 |
| 20260504180956 | 26 | 169 | 6.4 | 8.0 | 0.00 | 0.00 | 0.00 | 65 | 1015.6 |
| 20260504180455 | 26 | 223 | 4.8 | 4.8 | 0.00 | 0.00 | 0.00 | 65 | 1015.5 |
| 20260504175953 | 25 | 225 | 3.2 | 8.0 | 0.00 | 0.00 | 0.00 | 65 | 1015.5 |
| 20260504175450 | 25 | 192 | 8.0 | 16.1 | 0.00 | 0.00 | 0.00 | 66 | 1015.7 |
| 20260504174947 | 25 | 118 | 8.0 | 9.7 | 0.00 | 0.00 | 0.00 | 64 | 1015.5 |
| 20260504174445 | 25 | 124 | 6.4 | 17.7 | 0.00 | 0.00 | 0.00 | 65 | 1015.7 |
| 20260504173942 | 25 | 173 | 4.8 | 9.7 | 0.00 | 0.00 | 0.00 | 66 | 1015.9 |
| 20260504173438 | 25 | 112 | 3.2 | 8.0 | 0.00 | 0.00 | 0.00 | 66 | 1015.8 |
| 20260504172936 | 26 | 305 | 8.0 | 11.3 | 0.00 | 0.00 | 0.00 | 63 | 1015.6 |
| 20260504172431 | 25 | 206 | 4.8 | 20.9 | 0.00 | 0.00 | 0.00 | 63 | 1015.9 |
| 20260504171928 | 25 | 168 | 3.2 | 14.5 | 0.00 | 0.00 | 0.00 | 68 | 1015.8 |
| 20260504171426 | 25 | 244 | 8.0 | 11.3 | 0.00 | 0.00 | 0.00 | 66 | 1015.8 |
| 20260504170922 | 25 | 247 | 4.8 | 16.1 | 0.00 | 0.00 | 0.00 | 65 | 1015.7 |
| 20260504170419 | 25 | 80 | 4.8 | 4.8 | 0.00 | 0.00 | 0.00 | 66 | 1015.9 |
| 20260504160338 | 25 | 214 | 4.8 | 16.1 | 0.00 | 0.00 | 0.00 | 67 | 1016.6 |
| 20260504150802 | 24 | 71 | 3.2 | 14.5 | 0.00 | 0.00 | 0.00 | 68 | 1016.6 |
| 20260504150259 | 24 | 197 | 3.2 | 3.2 | 0.00 | 0.00 | 0.00 | 70 | 1016.6 |
| 20260504141229 | 22 | 70 | 1.6 | 9.7 | 0.00 | 0.00 | 0.00 | 71 | 1016.7 |
| 20260504140725 | 22 | 90 | 0.0 | 1.6 | 0.00 | 0.00 | 0.00 | 69 | 1016.6 |
| 20260504140221 | 22 | 59 | 0.0 | 4.8 | 0.00 | 0.00 | 0.00 | 70 | 1016.8 |
| 20260504130644 | 19 | 46 | 0.0 | 1.6 | 0.00 | 0.00 | 0.00 | 80 | 1016.7 |
| 20260504130140 | 18 | 75 | 0.0 | 0.0 | 0.00 | 0.00 | 0.00 | 81 | 1016.6 |